KK4PTE Weather Reports


Display with metric or nautical units.
time (UTC)temp
F
wind
direction
speed
MPH
gust
MPH
rain 1hr
in
rain 24hr
in
rain mn
in
humidity
%
barometer
mb
20260906031514 78 88 0.0 0.0 0.00 0.00 0.00 82 1011.8
20260906030014 78 55 0.0 0.0 0.00 0.00 0.00 82 1011.4
20260906024510 79 54 0.0 0.0 0.00 0.00 0.00 82 1011.3
20260906023011 79 180 1.0 6.0 0.00 0.00 0.00 81 1011.0
20260906021510 80 72 0.0 0.0 0.00 0.00 0.00 79 1010.5
20260906020009 81 72 0.0 0.0 0.00 0.00 0.00 79 1010.4
20260906014508 81 72 0.0 0.0 0.00 0.00 0.00 77 1010.3
20260906013012 83 72 0.0 0.0 0.00 0.00 0.00 76 1010.6
20260906011509 84 72 0.0 4.0 0.00 0.00 0.00 72 1010.6
20260906010007 85 71 3.0 8.0 0.00 0.00 0.00 70 1010.5
20260906004506 84 63 3.0 5.0 0.00 0.00 0.00 72 1010.2
20260906003006 85 70 3.0 7.0 0.00 0.00 0.00 74 1010.1
20260906001505 87 301 0.0 2.0 0.00 0.00 0.00 69 1010.0
20260906000004 89 301 0.0 0.0 0.00 0.00 0.00 65 1010.1
20260905234506 92 301 0.0 0.0 0.00 0.00 0.00 60 1010.2
20260905233003 95 301 0.0 4.0 0.00 0.00 0.00 55 1010.1
20260905231503 96 281 1.0 9.0 0.00 0.00 0.00 52 1010.3
20260905230004 97 297 1.0 8.0 0.00 0.00 0.00 53 1010.2
20260905224504 97 257 0.0 4.0 0.00 0.00 0.00 50 1010.0
20260905223100 98 313 0.0 4.0 0.00 0.00 0.00 49 1010.2
20260905221605 98 274 0.0 6.0 0.00 0.00 0.00 49 1010.3
20260905220108 97 322 2.0 5.0 0.00 0.00 0.00 49 1010.3
20260905214557 98 285 1.0 6.0 0.00 0.00 0.00 49 1010.4
20260905213056 97 25 0.0 9.0 0.00 0.00 0.00 48 1010.4
20260905211627 97 303 5.0 8.0 0.00 0.00 0.00 49 1010.5
20260905210057 98 20 2.0 9.0 0.00 0.00 0.00 47 1010.4
20260905204557 97 293 5.0 8.0 0.00 0.00 0.00 48 1010.6
20260905203112 98 304 5.0 9.0 0.00 0.00 0.00 49 1010.7
20260905201551 97 290 3.0 4.0 0.00 0.00 0.00 51 1011.0
20260905200055 98 64 2.0 8.0 0.00 0.01 0.00 51 1011.1
20260905194544 98 274 3.0 9.0 0.00 0.01 0.00 49 1011.3
20260905193042 97 308 4.0 10.0 0.00 0.01 0.00 50 1011.5
20260905191539 97 332 0.0 8.0 0.00 0.01 0.00 54 1011.8
20260905190038 96 76 3.0 7.0 0.00 0.01 0.00 53 1012.1
20260905184534 95 245 1.0 4.0 0.00 0.01 0.00 58 1012.2
20260905183032 94 325 1.0 6.0 0.00 0.01 0.00 57 1012.5
20260905181529 95 278 1.0 8.0 0.00 0.01 0.00 56 1012.6
20260905180028 94 295 2.0 6.0 0.00 0.01 0.00 60 1012.8
20260905174534 95 295 0.0 7.0 0.00 0.01 0.00 57 1012.7
20260905173027 94 167 0.0 4.0 0.00 0.01 0.00 59 1012.8
20260905171534 93 151 2.0 5.0 0.00 0.01 0.00 61 1013.1
20260905170018 93 250 1.0 4.0 0.00 0.01 0.00 65 1013.3
20260905164513 91 11 0.0 4.0 0.00 0.01 0.00 64 1013.5
20260905163009 89 276 1.0 6.0 0.00 0.01 0.00 68 1013.8
20260905161506 88 317 0.0 6.0 0.00 0.01 0.00 70 1013.9
20260905160006 87 60 1.0 4.0 0.00 0.01 0.00 70 1014.2
20260905154602 85 322 1.0 6.0 0.00 0.01 0.00 73 1014.3
20260905153056 84 327 0.0 0.0 0.00 0.01 0.00 78 1014.2
20260905151602 82 272 0.0 0.0 0.00 0.01 0.00 80 1014.3
20260905150048 81 227 0.0 0.0 0.00 0.01 0.00 83 1014.3
20260905144544 79 218 0.0 0.0 0.00 0.01 0.00 85 1014.6
20260905143041 77 1 0.0 0.0 0.00 0.01 0.00 87 1014.6
20260905141542 76 1 0.0 0.0 0.00 0.01 0.00 88 1014.8
20260905140036 75 4 0.0 0.0 0.00 0.01 0.00 89 1014.7
20260905134533 74 180 0.0 0.0 0.00 0.01 0.00 89 1014.7
20260905133027 74 180 0.0 0.0 0.00 0.01 0.00 89 1014.7
20260905131527 73 5 0.0 0.0 0.00 0.01 0.00 89 1014.7
20260905130026 73 4 0.0 0.0 0.00 0.01 0.00 89 1014.7
20260905124536 72 4 0.0 0.0 0.00 0.01 0.00 89 1014.6
20260905123023 72 4 0.0 0.0 0.00 0.01 0.00 89 1014.5
20260905121522 71 4 0.0 0.0 0.00 0.01 0.00 89 1014.3
20260905120020 71 4 0.0 0.0 0.00 0.01 0.00 89 1014.3
20260905114518 71 4 0.0 0.0 0.00 0.01 0.00 89 1014.1
20260905113017 71 4 0.0 0.0 0.00 0.01 0.00 89 1013.8
20260905111516 71 4 0.0 0.0 0.00 0.01 0.00 89 1013.7
20260905110015 71 4 0.0 0.0 0.00 0.01 0.00 89 1013.5
20260905104512 71 4 0.0 0.0 0.00 0.01 0.00 89 1013.3
20260905103018 71 4 0.0 0.0 0.00 0.01 0.00 89 1013.2
20260905101511 71 4 0.0 0.0 0.00 0.01 0.00 89 1013.2
20260905100011 71 4 0.0 0.0 0.00 0.01 0.00 89 1013.0
20260905094510 72 4 0.0 0.0 0.00 0.01 0.00 88 1012.9
20260905093009 72 4 0.0 0.0 0.00 0.01 0.00 89 1012.9
20260905091520 72 4 0.0 0.0 0.00 0.01 0.00 89 1012.8
20260905090007 72 4 0.0 0.0 0.00 0.01 0.00 88 1012.7
20260905084506 72 4 0.0 0.0 0.00 0.01 0.00 88 1012.9
20260905083004 72 4 0.0 0.0 0.00 0.01 0.00 88 1012.8
20260905081505 72 4 0.0 0.0 0.00 0.01 0.00 88 1012.9
20260905080003 72 4 0.0 0.0 0.00 0.01 0.00 88 1012.9
20260905074503 73 4 0.0 0.0 0.00 0.01 0.00 88 1012.7
20260905073002 73 4 0.0 0.0 0.00 0.01 0.00 88 1012.8
20260905071600 73 4 0.0 0.0 0.00 0.01 0.00 88 1012.7
20260905070105 73 4 0.0 0.0 0.00 0.01 0.00 88 1012.8
20260905064557 73 4 0.0 0.0 0.00 0.01 0.00 88 1013.0
20260905063058 73 4 0.0 0.0 0.00 0.01 0.00 88 1012.9
20260905061619 74 4 0.0 0.0 0.00 0.01 0.00 88 1013.0
20260905060106 74 4 0.0 1.0 0.00 0.01 0.00 88 1013.0
20260905054552 74 4 0.0 0.0 0.00 0.01 0.00 88 1013.1
20260905053048 74 4 0.0 0.0 0.00 0.01 0.00 87 1013.3
20260905051544 74 4 0.0 0.0 0.00 0.01 0.00 87 1013.3
20260905050040 74 4 0.0 0.0 0.00 0.01 0.01 87 1013.5
20260905044539 75 4 0.0 0.0 0.00 0.01 0.01 87 1013.3
20260905043038 75 4 0.0 0.0 0.00 0.01 0.01 87 1013.5
20260905041538 75 4 0.0 0.0 0.00 0.01 0.01 86 1013.4
20260905040038 76 4 0.0 0.0 0.00 0.01 0.01 86 1013.4
20260905034543 76 4 0.0 0.0 0.00 0.01 0.01 86 1013.4
20260905033037 76 4 0.0 0.0 0.00 0.01 0.01 86 1013.6